Weather History for Lamoni, IA

Change the Weather History Date:

Wednesday, October 26, 2011

  Actual Average Record
Temperature  
Mean Temperature 49 °F 49 °F  
Max Temperature 57 °F 59 °F 81 °F (1963)
Min Temperature 41 °F 39 °F 24 °F (1949)
Degree Days  
Heating Degree Days 16 16  
Month to date heating degree days 217 299  
Since 1 July heating degree days 380 399  
Cooling Degree Days 0 0  
Month to date cooling degree days 23 11  
Year to date cooling degree days 1144 944  
Moisture  
Dew Point 38 °F    
Average Humidity 69    
Maximum Humidity 83    
Minimum Humidity 54    
Precipitation  
Precipitation 0.00 in 0.11 in 0.70 in (1970)
Month to date precipitation 0.07 2.43  
Year to date precipitation 29.07  
Sea Level Pressure  
Sea Level Pressure 30.02 in    
Wind  
Wind Speed 10 mph (North)    
Max Wind Speed 16 mph    
Max Gust Speed 21 mph    
Visibility 10 miles    
Events      
T = Trace of Precipitation, MM = Missing Value Source: NWS Daily Summary

Daily Weather History Graph

Daily Weather History Graph

Search for Another Location

Airport:

Trip Planner

Search our weather history database for the weather conditions in past years. The results will help you decide how hot, cold, wet, or windy it might be!

Date:

Astronomy

Oct. 26, 2011 Rise Set
Actual Time 7:38 AM CDT 6:19 PM CDT
Civil Twilight 7:10 AM CDT 6:47 PM CDT
Nautical Twilight 6:38 AM CDT 7:19 PM CDT
Astronomical Twilight 6:06 AM CDT 7:51 PM CDT
Moon 7:27 AM CDT (10/26) 6:02 PM CDT (10/26)
Length of Visible Light 11h 37m
Length of Day
10h 41m
Waning Crescent, 0% of the Moon is Illuminated
Oct 26
Waning Crescent
Oct 26
New
Nov 2
First Quarter
Nov 10
Full
Nov 18
Last Quarter

Hourly Weather History & Observations

Time (CDT) Temp. Windchill Dew Point Humidity Pressure Visibility Wind Dir Wind Speed Gust Speed Precip Events Conditions
12:53 AM 48.0 °F - 39.9 °F 74% 29.90 in 10.0 mi North 11.5 mph - N/A   Clear
1:53 AM 46.0 °F 40.6 °F 39.0 °F 76% 29.96 in 10.0 mi NNW 11.5 mph - N/A   Clear
2:53 AM 45.0 °F 39.7 °F 39.0 °F 80% 29.96 in 10.0 mi North 10.4 mph - N/A   Clear
3:53 AM 44.1 °F 37.4 °F 39.0 °F 82% 29.97 in 10.0 mi North 13.8 mph 21.9 mph N/A   Mostly Cloudy
4:53 AM 44.1 °F 36.5 °F 39.0 °F 82% 29.97 in 10.0 mi North 17.3 mph 21.9 mph N/A   Overcast
5:53 AM 43.0 °F 36.0 °F 37.9 °F 82% 29.98 in 10.0 mi North 13.8 mph 21.9 mph N/A   Overcast
6:53 AM 42.1 °F 35.7 °F 37.9 °F 85% 29.99 in 10.0 mi North 11.5 mph - N/A   Overcast
8:53 AM 43.0 °F 38.2 °F 37.9 °F 82% 30.04 in 10.0 mi NNW 8.1 mph 19.6 mph N/A   Overcast
10:09 AM 44.6 °F 39.7 °F 37.4 °F 76% 30.06 in 10.0 mi North 9.2 mph - N/A   Overcast
10:53 AM 48.9 °F - 39.0 °F 69% 30.05 in 10.0 mi North 10.4 mph - N/A   Partly Cloudy
11:53 AM 50.0 °F - 37.9 °F 63% 30.05 in 10.0 mi North 11.5 mph - N/A   Overcast
12:53 PM 52.0 °F - 39.0 °F 61% 30.04 in 10.0 mi North 6.9 mph - N/A   Overcast
1:53 PM 55.9 °F - 39.0 °F 53% 30.04 in 10.0 mi North 13.8 mph 23.0 mph N/A   Partly Cloudy
2:53 PM 54.0 °F - 37.9 °F 55% 30.03 in 10.0 mi North 12.7 mph 21.9 mph N/A   Mostly Cloudy
3:53 PM 53.1 °F - 37.0 °F 55% 30.03 in 10.0 mi North 13.8 mph - N/A   Clear
4:53 PM 51.1 °F - 36.0 °F 56% 30.03 in 10.0 mi North 16.1 mph - N/A   Unknown
5:53 PM 48.0 °F - 37.0 °F 66% 30.06 in 10.0 mi North 8.1 mph - N/A   Overcast
6:53 PM 46.9 °F - 37.0 °F 68% 30.05 in 10.0 mi North 4.6 mph - N/A   Overcast
7:53 PM 46.0 °F 44.8 °F 37.0 °F 71% 30.09 in 10.0 mi WNW 3.5 mph - N/A   Overcast
8:53 PM 46.0 °F 43.9 °F 37.9 °F 73% 30.07 in 10.0 mi NW 4.6 mph - N/A   Overcast
9:53 PM 45.0 °F 42.6 °F 37.9 °F 76% 30.06 in 10.0 mi NW 4.6 mph - N/A   Overcast
10:53 PM 45.0 °F 42.6 °F 37.0 °F 74% 30.07 in 10.0 mi NNW 4.6 mph - N/A   Overcast
11:53 PM 45.0 °F 42.6 °F 37.0 °F 74% 30.07 in 10.0 mi NNW 4.6 mph - N/A   Mostly Cloudy